Current weather by "City, St" or "zip code"  
 

Current Conditions: Kansas City, Kansas City International Airport, MO

Mostly Cloudy


13.0 F

Last Updated on Jan 19 2022, 9:53 pm CST
Humidity: 59%
Wind Speed: N 17.3 mph
Barometer 30.58 in
Dewpoint: 1.0 F
Visibility: 10.00 mi
Precip: --
Heat Index: NA
Wind Chill: -4 F
Current conditions at:

Kansas City, Kansas City International Airport, MO (KMCI)

Lat: 39.29722 Lon: 94.73056

Local Radar Image active severe weather and emergency alerts image image weather storm and storm spotter reports image weather observation monitoring service image
Local
Radar
Active
Alerts
Storm Reports Obs
Monitoring

Sign-up For Email & Text Message Weather Alert Notification Services



Advertise Here

Observation History for Kansas City, Kansas City International Airport, MO


Time Wind
(mph)
Vis
(mi)
Weather Precip (in) Temperature (F) Relative
Humidity
Wind
Chill
(F)
Heat
Index
(F)
Pressure
Air Dwpt altimeter
(in)
sea level
(mb)
Rmks
9:53 pm CST N 17.3 10.00 Mostly Cloudy -- 13.0 1.0 59% -4 NA 30.58 1037.2
8:53 pm CST N 16.1 G 25.3 10.00 Overcast -- 16.0 3.0 56% 1 NA 30.55 1036.1
7:53 pm CST N 12.7 10.00 Mostly Cloudy -- 16.0 3.9 59% 2 NA 30.53 1035.4
6:53 pm CST N 12.7 10.00 Partly Cloudy -- 15.0 3.9 61% 1 NA 30.51 1034.5
5:53 pm CST N 18.4 G 24.2 10.00 Partly Cloudy -- 16.0 3.9 59% NA NA 30.47 1033.1
4:53 pm CST N 19.6 G 29.9 10.00 Mostly Cloudy -- 18.0 3.9 54% 2 NA 30.44 1032.0
3:53 pm CST N 15.0 G 24.2 10.00 Overcast -- 20.0 7.0 57% 6 NA 30.41 1031.0
2:53 pm CST N 16.1 G 27.6 10.00 Overcast -- 19.0 6.1 57% 4 NA 30.39 1030.1
1:53 pm CST N 15.0 G 24.2 10.00 Overcast -- 21.0 7.0 54% 7 NA 30.37 1029.3
12:53 pm CST N 19.6 G 33.4 10.00 Overcast -- 20.0 5.0 52% 4 NA 30.36 1029.2
11:53 am CST N 19.6 10.00 Overcast -- 22.0 8.1 55% 7 NA 30.36 1029.1
10:53 am CST N 18.4 G 32.2 10.00 Overcast -- 22.0 8.1 55% 7 NA 30.34 1028.3
9:53 am CST N 20.7 G 31.1 10.00 Overcast and Breezy -- 22.0 10.0 60% 7 NA 30.30 1027.0
8:53 am CST N 18.4 G 28.8 10.00 Mostly Cloudy -- 22.0 12.0 66% 7 NA 30.25 1025.1
7:53 am CST N 17.3 G 31.1 10.00 Mostly Cloudy -- 23.0 12.9 65% 9 NA 30.21 1023.6
6:53 am CST N 23.0 G 31.1 10.00 Mostly Cloudy and Breezy -- 25.0 15.1 66% 10 NA 30.17 1022.4
5:53 am CST N 23.0 G 33.4 10.00 Mostly Cloudy and Breezy -- 27.0 18.0 69% 13 NA 30.11 1020.1
4:53 am CST N 18.4 G 28.8 10.00 Mostly Cloudy -- 30.0 23.0 75% 18 NA 30.07 1018.6
3:53 am CST N 19.6 G 29.9 10.00 Mostly Cloudy -- 34.0 27.0 76% 23 NA 30.03 1017.2
2:53 am CST N 23.0 8.00 Partly Cloudy and Breezy -- 35.0 28.9 78% 23 NA 30.00 1016.0
1:53 am CST N 17.3 G 25.3 10.00 Overcast -- 38.0 33.1 83% 29 NA 29.97 1014.9
12:53 am CST N 18.4 G 26.5 10.00 Partly Cloudy -- 38.0 33.1 83% 28 NA 29.95 1014.3
11:53 pm CST N 11.5 10.00 Mostly Cloudy -- 39.0 32.0 76% 32 NA 29.92 1013.3
10:53 pm CST N 3.5 10.00 Partly Cloudy -- 45.0 33.1 63% NA NA 29.87 1011.5

Regional Weather Observation


Kansas City, Kansas City International Airport, MO (KMCI)

Mostly Cloudy
13.0 F

Kansas City, Kansas City Downtown Airport, MO (KMKC)

Fair
15.0 F

Lawrence, Lawrence Municipal Airport, KS (KLWC)

Fair
16.0 F

Mosby Midwest National Air Center Airport, MO (KGPH)

Fair
14.0 F

Cameron Memorial Airport, MO (KEZZ)

Fair
9.0 F

Topeka, Philip Billard Municipal Airport, KS (KTOP)

Fair
15.0 F

Advertise Here


Advertise Here